Tiempo atmosférico en la estación meteorológica de Almadén, Ciudad Real (535 m.)



Fecha
DESCASC
Temp. máxima en grados centígrados (hora)
DESCASC
Temp. mínima en grados centígrados (hora)
DESCASC
Temp. media en grados centígrados
DESCASC
Racha de viento máxima en m/sg (hora)
DESCASC
Velocidad máxima media en intervalos de 10 minutos(hora)
DESCASC
Precipitaciones diarias en mm
DESCASC
Precipitaciones de 00:00 a 06:00 en mm
DESCASC
Precipitaciones de 06:00 a 12:00 en mm
DESCASC
Precipitaciones de 12:00 a 18:00 en mm
DESCASC
Precipitaciones de 18:00 a 24:00 en mm
DESCASC
24-01-2021 12 (03:00) 8.8 (08:20) 10.4 13.33 (01:00) 5.56 (03:10) 4 4 0 0 0
23-01-2021 11.8 (23:59) 5.7 (08:20) 8.8 16.67 (19:00) 8.06 (17:10) 3.4 0.4 0.2 1.2 1.6
22-01-2021 12.1 (05:00) 6.8 (22:20) 9.5 19.44 (07:20) 9.17 (07:50) 11 9 0 2 0
21-01-2021 12.1 (16:20) 8.6 (00:00) 10.4 16.11 (22:30) 8.89 (23:30) 1.6 0 0.6 0 1
20-01-2021 11.7 (16:50) 7.3 (00:00) 9.5 14.72 (08:20) 9.44 (08:40) 6.4 0 3.2 2.2 1
19-01-2021 14 (14:10) 1.7 (00:00) 7.9 6.39 (22:00) 3.89 (22:00) 0 0 0 0 0
18-01-2021 18.7 (16:40) 2.4 (00:00) 10.6 4.72 (13:10) 2.22 (13:20) 0 0 0 0 0
17-01-2021 17.8 (16:10) 1 (00:00) 9.4 3.89 (15:20) 2.5 (14:50) 0 0 0 0 0
16-01-2021 16.7 (15:50) -0.2 (00:00) 8.3 3.33 (16:00) 2.5 (16:00) 0 0 0 0 0
15-01-2021 14.7 (15:40) 0.7 (00:00) 7.7 3.06 (14:20) 1.67 (13:10) 0 0 0 0 0
14-01-2021 12.7 (16:00) -1.8 (07:50) 5.4 3.06 (16:10) 1.67 (13:00) 0 0 0 0 0
13-01-2021 13.4 (15:50) -1.8 (-00:0) 5.8 2.5 (13:20) 1.67 (13:30) 0 0 0 0 0
12-01-2021 12.2 (17:00) -2.4 (-00:0) 4.9 3.33 (14:20) 1.94 (02:40) 0 0 0 0 0
11-01-2021 8.2 (16:50) -1.1 (-00:0) 3.5 7.5 (12:30) 3.61 (17:30) 0 0 0 0 0
10-01-2021 9 (14:50) 0.1 (05:30) 4.6 6.94 (23:40) 3.61 (15:40) 1.2 0.4 0.6 0.2 0
09-01-2021 2.9 (02:40) 0.4 (00:00) 1.7 12.22 (14:30) 6.39 (12:20) 6.2 4.4 1.6 0.2 0
08-01-2021 2.9 (17:00) 1.3 (00:00) 2.1 8.61 (07:30) 4.44 (15:20) 30.4 0 2.8 12.2 15.4
07-01-2021 3.1 (00:00) 1.2 (00:00) 2.1 8.61 (19:50) 3.89 (18:30) 7 3.2 2.8 1 0
06-01-2021 7.4 (13:50) -2.1 (-00:0) 2.7 5.56 (19:40) 2.78 (19:50) 0.2 0 0 0 0.2
05-01-2021 8.4 (16:20) -3.3 (-00:0) 2.5 4.17 (23:10) 2.22 (23:10) 0 0 0 0 0
04-01-2021 6.2 (17:20) -1 (-00:0) 2.6 5 (12:50) 3.06 (12:50) 1.4 0 0 1 0.4
03-01-2021 8.8 (15:20) -3.7 (-00:0) 2.6 6.67 (16:50) 2.5 (16:50) 0 0 0 0 0
02-01-2021 8.2 (15:20) -0.7 (-00:0) 3.7 4.44 (15:50) 1.67 (15:10) 0 0 0 0 0
01-01-2021 8 (15:30) 2.4 (00:00) 5.2 10.83 (01:30) 5.83 (04:00) 0 0 0 0 0
31-12-2020 8.4 (13:40) -1.8 (-00:0) 3.3 10.28 (23:30) 5.28 (23:30) 2.4 0 0 0 2.4
30-12-2020 9.6 (15:50) -0.3 (00:00) 4.7 4.17 (14:40) 2.5 (13:50) 0 0 0 0 0
29-12-2020 9.1 (15:10) 3.5 (00:00) 6.3 9.72 (14:50) 4.44 (08:40) 0.2 0 0 0.2 0
28-12-2020 11.3 (14:40) 4.8 (00:00) 8.1 19.17 (07:30) 7.22 (07:40) 0.4 0 0.4 0 0
27-12-2020 11.3 (15:50) -2.3 (-00:0) 4.5 11.67 (21:20) 5.83 (21:20) 0 0 0 0 0
26-12-2020 10.9 (16:20) 0.7 (00:00) 5.8 11.11 (00:30) 5.56 (00:40) 0 0 0 0 0

Gráficas

Temp. máximas Temp. mínimas Temp. medias Precipitaciones Rachas de viento máximas Velocidades máximas media en intervalos de 10 minutos

Datos horarios

Fecha y hora oficial Temperatura (ºC) Velocidad del viento (km/h) Dirección del viento Racha (km/h) Dirección de racha Precipitación (mm) Presión (hPa) Tendencia (hPa) Humedad (%)
2021-01-24 23:00:00 9.9 9 Oeste 25 Oeste 0 -- -- 86
2021-01-24 22:00:00 10.1 9 Oeste 20 Oeste 0 -- -- 88
2021-01-24 21:00:00 10.2 6 Oeste 17 Oeste 0 -- -- 83
2021-01-24 20:00:00 10.4 6 Sudoeste 13 Oeste 0 -- -- 79
2021-01-24 19:00:00 10.5 4 Oeste 15 Oeste 0 -- -- 79
2021-01-24 18:00:00 10.8 8 Oeste 25 Oeste 0 -- -- 77
2021-01-24 17:00:00 11.6 9 Oeste 21 Noroeste 0 -- -- 74
2021-01-24 16:00:00 11.3 10 Oeste 24 Noroeste 0 -- -- 74
2021-01-24 15:00:00 11.5 6 Oeste 19 Oeste 0 -- -- 79
2021-01-24 14:00:00 10.9 7 Oeste 23 Noroeste 0 -- -- 76
2021-01-24 13:00:00 10.5 10 Oeste 23 Noroeste 0 -- -- 80
2021-01-24 12:00:00 10.1 10 Oeste 28 Oeste 0 -- -- 84
2021-01-24 11:00:00 9.7 6 Oeste 19 Oeste 0 -- -- 87
2021-01-24 10:00:00 9.3 5 Oeste 25 Oeste 0 -- -- 89
2021-01-24 09:00:00 9 9 Oeste 22 Sudoeste 0 -- -- 90
2021-01-24 08:00:00 9.1 13 Sudoeste 39 Oeste 0 -- -- 88
2021-01-24 07:00:00 9.4 12 Oeste 39 Oeste 0 -- -- 91
2021-01-24 06:00:00 9.8 12 Noroeste 29 Oeste 0 -- -- 90
2021-01-24 05:00:00 11 10 Oeste 36 Oeste 0 -- -- 86
2021-01-24 04:00:00 11.8 14 Oeste 43 Noroeste 1.6 -- -- 98
2021-01-24 03:00:00 12 17 Oeste 39 Oeste 0.4 -- -- 97
2021-01-24 02:00:00 11.4 5 Oeste 38 Sur 0.6 -- -- 98
2021-01-24 01:00:00 11.4 9 Sudoeste 48 Sudoeste 1.4 -- -- 97
2021-01-24 00:00:00 11.8 7 Noroeste 40 Sudoeste 0.2 -- -- 95
2021-01-23 23:00:00 11.5 10 Sudoeste 47 Sudoeste 0.4 -- -- 98
2021-01-23 22:00:00 10.8 16 Sur 59 Sur 0.8 -- -- 99
2021-01-23 21:00:00 10.5 22 Sudoeste 58 Sur 0.2 -- -- 98
2021-01-23 20:00:00 10.5 12 Sudoeste 57 Sudoeste 0 -- -- 95
2021-01-23 19:00:00 10.5 21 Sudoeste 60 Sudoeste 0 -- -- 92
2021-01-23 18:00:00 10 23 Sudoeste 57 Sur 0.2 -- -- 92
2021-01-23 17:00:00 9.4 27 Sudoeste 48 Sur 0.2 -- -- 92
2021-01-23 16:00:00 8.8 16 Sudoeste 29 Sudoeste 0.2 -- -- 97
2021-01-23 15:00:00 8.8 17 Sudoeste 39 Sudoeste 0.6 -- -- 92
2021-01-23 14:00:00 9.3 14 Sudoeste 36 Sur 0 -- -- 87
2021-01-23 13:00:00 9.4 19 Sudoeste 35 Sur 0 -- -- 83
2021-01-23 12:00:00 8.8 15 Sudoeste 30 Sur 0 -- -- 90
2021-01-23 11:00:00 7.5 11 Sudoeste 26 Sur 0 -- -- 94
2021-01-23 10:00:00 6.4 7 Sudoeste 22 Oeste 0 -- -- 95
2021-01-23 09:00:00 6 10 Sudoeste 21 Sudoeste 0 -- -- 95
2021-01-23 08:00:00 6 10 Sudoeste 24 Sur 0.2 -- -- 94
2021-01-23 07:00:00 6 8 Sudoeste 19 Sudoeste 0 -- -- 94
2021-01-23 06:00:00 6.1 7 Oeste 20 Sur 0 -- -- 95
2021-01-23 05:00:00 6.2 5 Sur 15 Sudoeste 0 -- -- 95
2021-01-23 04:00:00 6.6 5 Oeste 21 Oeste 0 -- -- 91
2021-01-23 03:00:00 6.3 5 Oeste 18 Sudoeste 0.2 -- -- 94
2021-01-23 02:00:00 6.5 9 Sudoeste 19 Sudoeste 0.2 -- -- 92
2021-01-23 01:00:00 7 8 Sudoeste 18 Sudoeste 0 -- -- 89
2021-01-23 00:00:00 7.2 6 Sudoeste 18 Sudoeste 0 -- -- 89
2021-01-22 23:00:00 7.2 9 Sudoeste 18 Sur 0 -- -- 87
2021-01-22 22:00:00 7 7 Oeste 23 Oeste 0 -- -- 83
2021-01-22 21:00:00 7.4 11 Oeste 34 Oeste 0 -- -- 81
2021-01-22 20:00:00 7.5 8 Oeste 28 Noroeste 0 -- -- 85
2021-01-22 19:00:00 8.3 5 Noroeste 28 Oeste 0 -- -- 80
2021-01-22 18:00:00 8.8 15 Oeste 45 Noroeste 0 -- -- 75
2021-01-22 17:00:00 10.1 21 Oeste 49 Oeste 0 -- -- 73
2021-01-22 16:00:00 9.5 21 Noroeste 47 Oeste 0 -- -- 81
2021-01-22 15:00:00 7.5 24 Oeste 62 Oeste 0.6 -- -- 86
2021-01-22 14:00:00 8.1 18 Noroeste 48 Noroeste 1.4 -- -- 94
2021-01-22 13:00:00 9.6 22 Oeste 51 Oeste 0 -- -- 78
2021-01-22 12:00:00 9.5 28 Oeste 61 Noroeste 0 -- -- 80
2021-01-22 11:00:00 10.2 24 Oeste 48 Noroeste 0 -- -- 73
2021-01-22 10:00:00 9.9 27 Oeste 48 Oeste 0 -- -- 72
2021-01-22 09:00:00 9.8 27 Oeste 58 Oeste 0 -- -- 79
2021-01-22 08:00:00 10.6 30 Oeste 70 Oeste 0 -- -- 73
2021-01-22 07:00:00 11.1 26 Oeste 59 Oeste 0 -- -- 82
2021-01-22 06:00:00 11.6 11 Oeste 45 Oeste 0.6 -- -- 93
2021-01-22 05:00:00 12.1 20 Oeste 40 Oeste 4.6 -- -- 92
2021-01-22 04:00:00 12 15 Sudoeste 42 Sudoeste 1 -- -- 98
2021-01-22 03:00:00 11.6 15 Sudoeste 40 Oeste 1.4 -- -- 99
2021-01-22 02:00:00 11 19 Sudoeste 45 Sur 1.2 -- -- 99
2021-01-22 01:00:00 10.9 17 Sudoeste 63 Sur 0.2 -- -- 98
2021-01-22 00:00:00 10.6 28 Sudoeste 50 Sudoeste 0.6 -- -- 98
2021-01-21 23:00:00 11.1 27 Sudoeste 58 Sudoeste 0.2 -- -- 92
2021-01-21 22:00:00 11.4 22 Sudoeste 55 Sudoeste 0 -- -- 88
2021-01-21 21:00:00 11.5 24 Sudoeste 57 Sudoeste 0.2 -- -- 90
2021-01-21 20:00:00 11.1 19 Sudoeste 51 Sur 0 -- -- 94
2021-01-21 19:00:00 11.7 18 Sudoeste 40 Sur 0 -- -- 87
2021-01-21 18:00:00 12.1 12 Sudoeste 45 Sudoeste 0 -- -- 83
2021-01-21 17:00:00 11.7 21 Sudoeste 44 Sudoeste 0 -- -- 87
2021-01-21 16:00:00 11.6 15 Oeste 41 Sur 0 -- -- 87
2021-01-21 15:00:00 12 12 Sudoeste 40 Sudoeste 0 -- -- 81
2021-01-21 14:00:00 11.7 15 Sudoeste 44 Sur 0 -- -- 82
2021-01-21 13:00:00 11 12 Sudoeste 36 Oeste 0 -- -- 87
2021-01-21 12:00:00 10.5 16 Sudoeste 36 Sudoeste 0 -- -- 88
2021-01-21 11:00:00 9.4 14 Sudoeste 33 Oeste 0 -- -- 96
2021-01-21 10:00:00 9.1 12 Sudoeste 25 Sudoeste 0.2 -- -- 98
2021-01-21 09:00:00 9 5 Sudoeste 19 Oeste 0.4 -- -- 98
2021-01-21 08:00:00 9.2 5 Oeste 21 Sudoeste 0 -- -- 96
2021-01-21 07:00:00 9.2 5 Sudoeste 26 Sur 0 -- -- 97
2021-01-21 06:00:00 9.2 9 Sudoeste 25 Sur 0 -- -- 96
2021-01-21 05:00:00 9.2 10 Oeste 32 Sur 0 -- -- 98
2021-01-21 04:00:00 9 10 Sudoeste 27 Sur 0 -- -- 98
2021-01-21 03:00:00 8.7 8 Sudoeste 25 Sudoeste 0 -- -- 98
2021-01-21 02:00:00 8.6 15 Sudoeste 30 Sur 0 -- -- 97
2021-01-21 01:00:00 8.9 6 Sudoeste 31 Sudoeste 0 -- -- 96
2021-01-21 00:00:00 9 6 Sudoeste 27 Sudoeste 0 -- -- 94
2021-01-20 23:00:00 9.2 9 Sur 31 Oeste 0 -- -- 92
2021-01-20 22:00:00 9.8 10 Oeste 31 Oeste 0 -- -- 90
2021-01-20 21:00:00 9.7 6 Sudoeste 26 Oeste 0.2 -- -- 93
2021-01-20 20:00:00 9.8 13 Noroeste 36 Oeste 0.8 -- -- 93
2021-01-20 19:00:00 11.3 10 Sudoeste 38 Sur 0 -- -- 85
2021-01-20 18:00:00 11.1 4 Sudoeste 15 Sur 0 -- -- 91
2021-01-20 17:00:00 11.5 13 Sudoeste 30 Sur 0 -- -- 90
2021-01-20 16:00:00 11 16 Sudoeste 33 Sudoeste 0 -- -- 93
2021-01-20 15:00:00 10 17 Sudoeste 46 Sur 0 -- -- 98
2021-01-20 14:00:00 9.1 21 Sur 39 Sudoeste 0.4 -- -- 99
2021-01-20 13:00:00 8.8 18 Sur 37 Sur 1.8 -- -- 99
2021-01-20 12:00:00 8.9 20 Sur 36 Sur 0 -- -- 97
2021-01-20 11:00:00 8.4 20 Sur 33 Sudoeste 0.8 -- -- 96
2021-01-20 10:00:00 7.4 9 Sur 37 Sur 2.4 -- -- 97
2021-01-20 09:00:00 7.5 28 Sur 53 Sur 0 -- -- 94
2021-01-20 08:00:00 7.7 24 Sur 49 Sur 0 -- -- 90
2021-01-20 07:00:00 7.7 17 Sur 41 Sur 0 -- -- 89
2021-01-20 06:00:00 8 13 Sur 32 Sur 0 -- -- 86
2021-01-20 05:00:00 7.9 19 Sur 32 Sur 0 -- -- 84
2021-01-20 04:00:00 8 17 Sur 37 Sur 0 -- -- 84
2021-01-20 03:00:00 7.8 15 Sur 33 Sudoeste 0 -- -- 83
2021-01-20 02:00:00 8.2 17 Sur 29 Sur 0 -- -- 80
2021-01-20 01:00:00 7.7 7 Sur 19 Sur 0 -- -- 81
2021-01-20 00:00:00 7.5 7 Sudoeste 14 Sudoeste 0 -- -- 80
2021-01-19 23:00:00 7.9 7 Sudoeste 23 Sudoeste 0 -- -- 76
2021-01-19 22:00:00 7.6 14 Sur 23 Sur 0 -- -- 77
2021-01-19 21:00:00 7.9 7 Sudoeste 20 Sur 0 -- -- 76
2021-01-19 20:00:00 9 13 Sur 23 Sur 0 -- -- 70
2021-01-19 19:00:00 9.6 0 Calma 4 Sudoeste 0 -- -- 74
2021-01-19 18:00:00 11.8 0 Calma 7 Sudoeste 0 -- -- 67
2021-01-19 17:00:00 12.4 3 Sudoeste 12 Sur 0 -- -- 64
2021-01-19 16:00:00 12 4 Oeste 17 Oeste 0 -- -- 61
2021-01-19 15:00:00 12.8 6 Oeste 18 Sudoeste 0 -- -- 61
2021-01-19 14:00:00 13.8 6 Sudoeste 16 Sudoeste 0 -- -- 57
2021-01-19 13:00:00 12.2 9 Sur 15 Sur 0 -- -- 65
2021-01-19 12:00:00 9.8 4 Sur 10 Sur 0 -- -- 71
2021-01-19 11:00:00 6.8 0 Calma 4 Sur 0 -- -- 81
2021-01-19 10:00:00 2.9 0 Calma 3 Nordeste 0 -- -- 91
2021-01-19 09:00:00 1.7 0 Calma 3 Nordeste 0 -- -- 91
2021-01-19 08:00:00 2.3 0 Calma 2 Sudeste 0 -- -- 90
2021-01-19 07:00:00 2.4 0 Calma 6 Este 0 -- -- 90
2021-01-19 06:00:00 2.5 0 Calma 3 Sur 0 -- -- 90
2021-01-19 05:00:00 3.2 0 Calma 2 Nordeste 0 -- -- 89
2021-01-19 04:00:00 3.7 0 Calma 3 Este 0 -- -- 86
2021-01-19 03:00:00 4.7 0 Calma 2 Sur 0 -- -- 83
2021-01-19 02:00:00 5.4 0 Calma 8 Nordeste 0 -- -- 80
2021-01-19 01:00:00 6.1 0 Calma 3 Oeste 0 -- -- 78
2021-01-19 00:00:00 7.1 3 Este 7 Nordeste 0 -- -- 74
2021-01-18 23:00:00 7.8 4 Nordeste 6 Nordeste 0 -- -- 70
2021-01-18 22:00:00 8.3 3 Nordeste 6 Nordeste 0 -- -- 68
2021-01-18 21:00:00 9.4 3 Nordeste 5 Nordeste 0 -- -- 63
2021-01-18 20:00:00 10.5 0 Calma 8 Nordeste 0 -- -- 59
2021-01-18 19:00:00 12.2 6 Este 10 Nordeste 0 -- -- 53
2021-01-18 18:00:00 16.6 3 Este 9 Este 0 -- -- 39
2021-01-18 17:00:00 18.5 4 Este 9 Este 0 -- -- 33
2021-01-18 16:00:00 18.3 4 Este 13 Este 0 -- -- 33
2021-01-18 15:00:00 16.9 6 Este 14 Este 0 -- -- 38
2021-01-18 14:00:00 16.6 4 Este 17 Este 0 -- -- 38
2021-01-18 13:00:00 14.8 5 Sudeste 14 Este 0 -- -- 42
2021-01-18 12:00:00 11.6 3 Sudeste 10 Nordeste 0 -- -- 43
2021-01-18 11:00:00 7.7 5 Nordeste 10 Nordeste 0 -- -- 45
2021-01-18 10:00:00 4.8 0 Calma 6 Nordeste 0 -- -- 57
2021-01-18 09:00:00 3.4 0 Calma 12 Este 0 -- -- 59
2021-01-18 08:00:00 3 5 Nordeste 8 Nordeste 0 -- -- 64
2021-01-18 07:00:00 3.3 0 Calma 5 Este 0 -- -- 65
2021-01-18 06:00:00 4.1 0 Calma 4 Este 0 -- -- 62
2021-01-18 05:00:00 4.6 0 Calma 4 Este 0 -- -- 59
2021-01-18 04:00:00 5 2 Nordeste 6 Este 0 -- -- 60
2021-01-18 03:00:00 5.2 4 Nordeste 7 Este 0 -- -- 58
2021-01-18 02:00:00 5.8 6 Nordeste 9 Nordeste 0 -- -- 55
2021-01-18 01:00:00 6.2 0 Calma 5 Este 0 -- -- 54
2021-01-18 00:00:00 7.1 3 Este 5 Nordeste 0 -- -- 44
2021-01-17 23:00:00 7.9 0 Calma 7 Nordeste 0 -- -- 44
2021-01-17 22:00:00 9 0 Calma 6 Nordeste 0 -- -- 41
2021-01-17 21:00:00 9.8 2 Norte 4 Norte 0 -- -- 37
2021-01-17 20:00:00 10.7 0 Calma 4 Norte 0 -- -- 47
2021-01-17 19:00:00 11.6 0 Calma 3 Norte 0 -- -- 42
2021-01-17 18:00:00 15 0 Calma 5 Oeste 0 -- -- 30
2021-01-17 17:00:00 17.5 2 Noroeste 9 Sudoeste 0 -- -- 26
2021-01-17 16:00:00 17.7 5 Sudoeste 14 Sudoeste 0 -- -- 27
2021-01-17 15:00:00 17.3 7 Sudoeste 13 Sur 0 -- -- 37
2021-01-17 14:00:00 15.7 6 Sudoeste 9 Sudoeste 0 -- -- 49
2021-01-17 13:00:00 13.2 3 Sudoeste 6 Sudoeste 0 -- -- 54
2021-01-17 12:00:00 10 2 Sudoeste 5 Sur 0 -- -- 63
2021-01-17 11:00:00 6.7 0 Calma 3 Sur 0 -- -- 69
2021-01-17 10:00:00 2.2 0 Calma 2 Nordeste 0 -- -- 74
2021-01-17 09:00:00 1 0 Calma 3 Nordeste 0 -- -- 78
2021-01-17 08:00:00 1.1 0 Calma 2 Norte 0 -- -- 78
2021-01-17 07:00:00 1.4 0 Calma 3 Nordeste 0 -- -- 78
2021-01-17 06:00:00 2.1 0 Calma 2 Este 0 -- -- 77
2021-01-17 05:00:00 2.2 0 Calma 0 Calma 0 -- -- 76
2021-01-17 04:00:00 2.6 0 Calma 3 Nordeste 0 -- -- 74
2021-01-17 03:00:00 3.3 0 Calma 3 Nordeste 0 -- -- 79
2021-01-17 02:00:00 4.3 0 Calma 3 Sur 0 -- -- 78
2021-01-17 01:00:00 5.2 0 Calma 3 Este 0 -- -- 76
2021-01-17 00:00:00 6.1 0 Calma 4 Nordeste 0 -- -- 72
2021-01-16 23:00:00 7.2 0 Calma 5 Nordeste 0 -- -- 70
2021-01-16 22:00:00 7.7 0 Calma 5 Norte 0 -- -- 67
2021-01-16 21:00:00 8.3 0 Calma 4 Norte 0 -- -- 67
2021-01-16 20:00:00 9.2 0 Calma 8 Norte 0 -- -- 64
2021-01-16 19:00:00 10.4 0 Calma 5 Norte 0 -- -- 60
2021-01-16 18:00:00 15.1 0 Calma 4 Noroeste 0 -- -- 46
2021-01-16 17:00:00 16.3 2 Sudoeste 10 Sudoeste 0 -- -- 44
2021-01-16 16:00:00 16.7 9 Sur 12 Sur 0 -- -- 47
2021-01-16 15:00:00 15.1 3 Norte 8 Sudoeste 0 -- -- 39
2021-01-16 14:00:00 14.2 3 Sur 7 Sudoeste 0 -- -- 51
2021-01-16 13:00:00 10.8 4 Sudoeste 7 Sur 0 -- -- 59
2021-01-16 12:00:00 8 4 Sur 7 Sudoeste 0 -- -- 76
2021-01-16 11:00:00 5.3 0 Calma 2 Sudoeste 0 -- -- 88
2021-01-16 10:00:00 1 0 Calma 2 Nordeste 0 -- -- 96
2021-01-16 09:00:00 -0.2 0 Calma 3 Nordeste 0 -- -- 93
2021-01-16 08:00:00 0.9 0 Calma 2 Nordeste 0 -- -- 91
2021-01-16 07:00:00 1.2 2 Nordeste 5 Nordeste 0 -- -- 92
2021-01-16 06:00:00 1.7 0 Calma 2 Nordeste 0 -- -- 91
2021-01-16 05:00:00 2 0 Calma 3 Nordeste 0 -- -- 88
2021-01-16 04:00:00 2.2 0 Calma 3 Nordeste 0 -- -- 89
2021-01-16 03:00:00 2.7 0 Calma 5 Este 0 -- -- 86
2021-01-16 02:00:00 3.5 0 Calma 4 Nordeste 0 -- -- 84
2021-01-16 01:00:00 4.2 2 Nordeste 5 Nordeste 0 -- -- 81
2021-01-16 00:00:00 4.5 2 Nordeste 5 Nordeste 0 -- -- 80
2021-01-15 23:00:00 4.8 0 Calma 2 Nordeste 0 -- -- 78
2021-01-15 22:00:00 5.5 0 Calma 4 Nordeste 0 -- -- 75
2021-01-15 21:00:00 6.5 0 Calma 5 Este 0 -- -- 72
2021-01-15 20:00:00 7.4 2 Este 7 Este 0 -- -- 69
2021-01-15 19:00:00 8.5 2 Nordeste 7 Este 0 -- -- 68
2021-01-15 18:00:00 12 0 Calma 6 Oeste 0 -- -- 56
2021-01-15 17:00:00 13.5 0 Calma 7 Sur 0 -- -- 53
2021-01-15 16:00:00 14.5 2 Sudeste 8 Nordeste 0 -- -- 46
2021-01-15 15:00:00 13.5 3 Nordeste 11 Nordeste 0 -- -- 52
2021-01-15 14:00:00 12.7 2 Este 10 Sur 0 -- -- 56
2021-01-15 13:00:00 10.4 5 Sur 10 Sur 0 -- -- 68
2021-01-15 12:00:00 7.4 2 Sudoeste 4 Oeste 0 -- -- 77
2021-01-15 11:00:00 4.2 0 Calma 2 Oeste 0 -- -- 90
2021-01-15 10:00:00 1.3 0 Calma 0 Calma 0 -- -- 91
2021-01-15 09:00:00 1 0 Calma 3 Nordeste 0 -- -- 90
2021-01-15 08:00:00 0.7 0 Calma 2 Nordeste 0 -- -- 92
2021-01-15 07:00:00 1.1 0 Calma 2 Nordeste 0 -- -- 92
2021-01-15 06:00:00 1.4 0 Calma 3 Nordeste 0 -- -- 93
2021-01-15 05:00:00 1.5 2 Nordeste 5 Nordeste 0 -- -- 95
2021-01-15 04:00:00 1.2 0 Calma 5 Nordeste 0 -- -- 95
2021-01-15 03:00:00 1.4 0 Calma 3 Nordeste 0 -- -- 94
2021-01-15 02:00:00 2 0 Calma 4 Nordeste 0 -- -- 93
2021-01-15 01:00:00 2 0 Calma 2 Nordeste 0 -- -- 92
2021-01-15 00:00:00 2.8 0 Calma 2 Norte 0 -- -- 89
2021-01-14 23:00:00 3.3 0 Calma 4 Norte 0 -- -- 88
2021-01-14 22:00:00 3.9 0 Calma 5 Norte 0 -- -- 86
2021-01-14 21:00:00 4.6 2 Norte 6 Norte 0 -- -- 82
2021-01-14 20:00:00 5.3 2 Norte 8 Norte 0 -- -- 78
2021-01-14 19:00:00 6.2 0 Calma 5 Norte 0 -- -- 72
2021-01-14 18:00:00 9.2 2 Norte 6 Noroeste 0 -- -- 61
2021-01-14 17:00:00 11.3 2 Noroeste 11 Sudoeste 0 -- -- 57
2021-01-14 16:00:00 12.7 4 Oeste 10 Oeste 0 -- -- 53
2021-01-14 15:00:00 11.1 2 Noroeste 8 Oeste 0 -- -- 54
2021-01-14 14:00:00 10.4 3 Oeste 10 Sur 0 -- -- 56
2021-01-14 13:00:00 8.5 6 Sur 10 Sur 0 -- -- 65
2021-01-14 12:00:00 5.8 6 Sur 9 Sur 0 -- -- 76
2021-01-14 11:00:00 3.2 0 Calma 3 Sudoeste 0 -- -- 86
2021-01-14 10:00:00 -0.7 0 Calma 0 Calma 0 -- -- 93
2021-01-14 09:00:00 -1.8 0 Calma 0 Calma 0 -- -- 93
2021-01-14 08:00:00 -1.7 0 Calma 0 Calma 0 -- -- 94
2021-01-14 07:00:00 -1.5 0 Calma 0 Calma 0 -- -- 92
2021-01-14 06:00:00 -1.2 0 Calma 0 Calma 0 -- -- 91
2021-01-14 05:00:00 -0.5 0 Calma 0 Calma 0 -- -- 89
2021-01-14 04:00:00 0.1 0 Calma 0 Calma 0 -- -- 86
2021-01-14 03:00:00 0.5 0 Calma 2 Sur 0 -- -- 85
2021-01-14 02:00:00 1.3 0 Calma 2 Sudeste 0 -- -- 81
2021-01-14 01:00:00 2.2 0 Calma 0 Calma 0 -- -- 77
2021-01-14 00:00:00 3 0 Calma 2 Nordeste 0 -- -- 73
2021-01-13 23:00:00 3.8 0 Calma 3 Norte 0 -- -- 70
2021-01-13 22:00:00 4.5 0 Calma 4 Oeste 0 -- -- 67
2021-01-13 21:00:00 5.3 0 Calma 4 Norte 0 -- -- 64
2021-01-13 20:00:00 5.7 0 Calma 4 Norte 0 -- -- 60
2021-01-13 19:00:00 6.3 0 Calma 5 Oeste 0 -- -- 64
2021-01-13 18:00:00 9.4 0 Calma 6 Oeste 0 -- -- 50
2021-01-13 17:00:00 12 2 Norte 8 Sudoeste 0 -- -- 43
2021-01-13 16:00:00 13 3 Oeste 7 Oeste 0 -- -- 40
2021-01-13 15:00:00 12.3 3 Oeste 7 Oeste 0 -- -- 40
2021-01-13 14:00:00 11.5 3 Oeste 9 Sur 0 -- -- 43
2021-01-13 13:00:00 8.9 5 Sur 9 Sur 0 -- -- 55
2021-01-13 12:00:00 6.5 2 Sudoeste 4 Sudoeste 0 -- -- 64
2021-01-13 11:00:00 2.7 2 Sur 3 Sur 0 -- -- 74
2021-01-13 10:00:00 -1.1 0 Calma 0 Calma 0 -- -- 83
2021-01-13 09:00:00 -1.8 0 Calma 0 Calma 0 -- -- 82
2021-01-13 08:00:00 -1.1 0 Calma 0 Calma 0 -- -- 78
2021-01-13 07:00:00 -0.6 0 Calma 3 Nordeste 0 -- -- 76
2021-01-13 06:00:00 -0.4 0 Calma 5 Nordeste 0 -- -- 76
2021-01-13 05:00:00 0.2 0 Calma 5 Nordeste 0 -- -- 74
2021-01-13 04:00:00 -0.2 0 Calma 7 Nordeste 0 -- -- 76
2021-01-13 03:00:00 0.4 0 Calma 3 Nordeste 0 -- -- 74
2021-01-13 02:00:00 0.9 0 Calma 3 Nordeste 0 -- -- 73
2021-01-13 01:00:00 1.7 0 Calma 5 Nordeste 0 -- -- 70
2021-01-13 00:00:00 2.1 0 Calma 4 Nordeste 0 -- -- 70
2021-01-12 23:00:00 3.4 2 Norte 3 Norte 0 -- -- 63
2021-01-12 22:00:00 3.9 2 Norte 3 Norte 0 -- -- 60
2021-01-12 21:00:00 4.3 0 Calma 5 Norte 0 -- -- 61
2021-01-12 20:00:00 4.8 2 Norte 4 Norte 0 -- -- 59
2021-01-12 19:00:00 5.6 0 Calma 4 Norte 0 -- -- 58
2021-01-12 18:00:00 9.3 0 Calma 4 Oeste 0 -- -- 45
2021-01-12 17:00:00 12.2 0 Calma 6 Oeste 0 -- -- 34
2021-01-12 16:00:00 11.1 3 Nordeste 10 Este 0 -- -- 36
2021-01-12 15:00:00 10 5 Este 12 Sur 0 -- -- 38
2021-01-12 14:00:00 8.5 2 Sudeste 10 Sudeste 0 -- -- 47
2021-01-12 13:00:00 6.7 3 Nordeste 11 Este 0 -- -- 45
2021-01-12 12:00:00 5.9 4 Sur 8 Sur 0 -- -- 61
2021-01-12 11:00:00 1.9 0 Calma 9 Este 0 -- -- 67
2021-01-12 10:00:00 -1.5 4 Este 9 Este 0 -- -- 78
2021-01-12 09:00:00 -2.3 0 Calma 4 Nordeste 0 -- -- 77
2021-01-12 08:00:00 -2.2 2 Nordeste 3 Nordeste 0 -- -- 77
2021-01-12 07:00:00 -1.9 2 Nordeste 3 Nordeste 0 -- -- 77
2021-01-12 06:00:00 -1.8 0 Calma 5 Este 0 -- -- 75
2021-01-12 05:00:00 -1.5 0 Calma 6 Este 0 -- -- 74
2021-01-12 04:00:00 -1.5 0 Calma 6 Nordeste 0 -- -- 74
2021-01-12 03:00:00 -0.9 2 Este 10 Nordeste 0 -- -- 71
2021-01-12 02:00:00 -0.5 5 Este 8 Nordeste 0 -- -- 70
2021-01-12 01:00:00 -0.6 3 Nordeste 6 Nordeste 0 -- -- 71
2021-01-12 00:00:00 -0.3 4 Nordeste 5 Nordeste 0 -- -- 70
2021-01-11 23:00:00 -0.2 0 Calma 4 Este 0 -- -- 69
2021-01-11 22:00:00 0.5 2 Norte 6 Este 0 -- -- 64
2021-01-11 21:00:00 1 0 Calma 6 Este 0 -- -- 64
2021-01-11 20:00:00 2.2 4 Este 9 Este 0 -- -- 60
2021-01-11 19:00:00 3.5 3 Este 10 Nordeste 0 -- -- 56
2021-01-11 18:00:00 5.8 10 Nordeste 21 Nordeste 0 -- -- 46
2021-01-11 17:00:00 8 8 Nordeste 18 Nordeste 0 -- -- 44
2021-01-11 16:00:00 7.8 10 Nordeste 21 Nordeste 0 -- -- 43
2021-01-11 15:00:00 7.3 10 Nordeste 22 Nordeste 0 -- -- 53
2021-01-11 14:00:00 6.6 8 Nordeste 18 Nordeste 0 -- -- 58
2021-01-11 13:00:00 5.2 8 Nordeste 27 Nordeste 0 -- -- 59
2021-01-11 12:00:00 3.6 10 Nordeste 18 Nordeste 0 -- -- 65
2021-01-11 11:00:00 2.2 4 Este 9 Este 0 -- -- 73
2021-01-11 10:00:00 -0.3 0 Calma 5 Este 0 -- -- 87
2021-01-11 09:00:00 -0.9 3 Nordeste 5 Nordeste 0 -- -- 87
2021-01-11 08:00:00 -1 0 Calma 6 Noroeste 0 -- -- 88
2021-01-11 07:00:00 -0.7 3 Norte 5 Norte 0 -- -- 89
2021-01-11 06:00:00 -0.3 0 Calma 3 Norte 0 -- -- 91
2021-01-11 05:00:00 -0.1 0 Calma 3 Nordeste 0 -- -- 93
2021-01-11 04:00:00 -0.1 0 Calma 3 Sudoeste 0 -- -- 92
2021-01-11 03:00:00 0.4 0 Calma 9 Nordeste 0 -- -- 92
2021-01-11 02:00:00 0.9 6 Nordeste 15 Nordeste 0 -- -- 90
2021-01-11 01:00:00 1.6 3 Norte 19 Este 0 -- -- 88
2021-01-11 00:00:00 2.2 10 Este 25 Este 0 -- -- 88
2021-01-10 23:00:00 1.7 4 Este 16 Nordeste 0 -- -- 89
2021-01-10 22:00:00 1.7 5 Nordeste 20 Nordeste 0 -- -- 86
2021-01-10 21:00:00 2.2 8 Nordeste 17 Este 0 -- -- 82
2021-01-10 20:00:00 2.8 6 Nordeste 14 Este 0 -- -- 79
2021-01-10 19:00:00 3.5 5 Nordeste 18 Este 0 -- -- 75
2021-01-10 18:00:00 5.7 8 Este 20 Este 0 -- -- 72
2021-01-10 17:00:00 7.6 9 Este 19 Este 0 -- -- 63
2021-01-10 16:00:00 7.6 9 Nordeste 22 Nordeste 0.2 -- -- 66
2021-01-10 15:00:00 8.9 4 Sudeste 14 Sudeste 0 -- -- 65
2021-01-10 14:00:00 8.3 6 Sudeste 18 Este 0 -- -- 72
2021-01-10 13:00:00 5.2 6 Este 17 Nordeste 0 -- -- 81
2021-01-10 12:00:00 3.3 10 Nordeste 15 Nordeste 0 -- -- 87
2021-01-10 11:00:00 2.4 4 Este 19 Nordeste 0 -- -- 92
2021-01-10 10:00:00 1.4 7 Nordeste 17 Este 0.4 -- -- 94
2021-01-10 09:00:00 0.9 5 Este 13 Nordeste 0.2 -- -- 96
2021-01-10 08:00:00 0.8 6 Nordeste 15 Este 0 -- -- 97
2021-01-10 07:00:00 0.4 5 Este 16 Nordeste 0 -- -- 99
2021-01-10 06:00:00 0.3 8 Este 22 Este 0.2 -- -- 99
2021-01-10 05:00:00 0.4 10 Nordeste 18 Este 0.2 -- -- 97
2021-01-10 04:00:00 0.6 6 Nordeste 12 Nordeste 0 -- -- 99
2021-01-10 03:00:00 0.4 3 Este 5 Nordeste 0 -- -- 97
2021-01-10 02:00:00 0.6 0 Calma 4 Nordeste 0 -- -- 95
2021-01-10 01:00:00 0.5 0 Calma 6 Nordeste 0 -- -- 95
2021-01-10 00:00:00 0.5 2 Nordeste 7 Este 0 -- -- 95
2021-01-09 23:00:00 0.8 0 Calma 5 Sudeste 0 -- -- 93
2021-01-09 22:00:00 1.5 2 Sur 10 Sur 0 -- -- 91
2021-01-09 21:00:00 2.1 3 Sudeste 14 Sur 0 -- -- 93
2021-01-09 20:00:00 2.1 2 Sudeste 11 Este 0 -- -- 97
2021-01-09 19:00:00 2.1 0 Calma 8 Sur 0 -- -- 96
2021-01-09 18:00:00 2.2 2 Sur 7 Sur 0 -- -- 96
2021-01-09 17:00:00 2.1 4 Oeste 18 Sur 0 -- -- 95
2021-01-09 16:00:00 1.8 11 Sur 30 Sudoeste 0 -- -- 96
2021-01-09 15:00:00 1.8 16 Sudoeste 44 Sur 0 -- -- 93
2021-01-09 14:00:00 1.7 18 Sudoeste 37 Sudoeste 0.2 -- -- 96
2021-01-09 13:00:00 2 23 Sudoeste 35 Sudoeste 0 -- -- 99
2021-01-09 12:00:00 2 23 Sudoeste 31 Sur 0 -- -- 100
2021-01-09 11:00:00 1.6 12 Sudoeste 26 Sur 0 -- -- 100
2021-01-09 10:00:00 1.2 6 Sudoeste 14 Sudoeste 0 -- -- 100
2021-01-09 09:00:00 0.8 0 Calma 11 Sur 0.2 -- -- 100
2021-01-09 08:00:00 0.8 3 Sudoeste 7 Sudoeste 0.6 -- -- 100
2021-01-09 07:00:00 1.8 0 Calma 10 Sudoeste 0.8 -- -- 100
2021-01-09 06:00:00 2 2 Sudoeste 6 Sur 0.4 -- -- 100
2021-01-09 05:00:00 2.1 0 Calma 6 Oeste 0.4 -- -- 100
2021-01-09 04:00:00 2.7 0 Calma 4 Sudoeste 0.4 -- -- 100
2021-01-09 03:00:00 2.9 0 Calma 3 Nordeste 0.6 -- -- 100
2021-01-09 02:00:00 2.8 2 Nordeste 13 Nordeste 0.8 -- -- 100
2021-01-09 01:00:00 2.8 4 Nordeste 19 Nordeste 1.8 -- -- 99
2021-01-09 00:00:00 2.8 7 Nordeste 17 Norte 1.4 -- -- 99
2021-01-08 23:00:00 2.8 8 Nordeste 17 Nordeste 2.4 -- -- 98
2021-01-08 22:00:00 2.9 5 Nordeste 18 Nordeste 1 -- -- 98
2021-01-08 21:00:00 2.8 5 Nordeste 22 Nordeste 2.8 -- -- 98
2021-01-08 20:00:00 2.8 8 Este 25 Nordeste 3.6 -- -- 99
2021-01-08 19:00:00 2.7 8 Este 19 Este 4.2 -- -- 98
2021-01-08 18:00:00 2.8 11 Este 25 Nordeste 2.4 -- -- 98
2021-01-08 17:00:00 2.9 12 Nordeste 22 Nordeste 3.2 -- -- 98
2021-01-08 16:00:00 2.8 10 Nordeste 27 Nordeste 3.2 -- -- 98
2021-01-08 15:00:00 2.6 8 Este 25 Nordeste 1.6 -- -- 97
2021-01-08 14:00:00 2.6 8 Este 30 Nordeste 1.4 -- -- 97
2021-01-08 13:00:00 2.6 10 Este 24 Este 0.4 -- -- 96
2021-01-08 12:00:00 2.7 12 Este 28 Nordeste 0.2 -- -- 95
2021-01-08 11:00:00 2.3 14 Nordeste 30 Nordeste 0.4 -- -- 96
2021-01-08 10:00:00 1.6 12 Nordeste 22 Este 1 -- -- 97
2021-01-08 09:00:00 1.5 9 Nordeste 26 Nordeste 1.2 -- -- 95
2021-01-08 08:00:00 2 9 Este 31 Este 0 -- -- 93
2021-01-08 07:00:00 2.1 10 Este 26 Este 0 -- -- 92
2021-01-08 06:00:00 2.1 11 Este 28 Nordeste 0 -- -- 91
2021-01-08 05:00:00 2.2 9 Este 18 Este 0 -- -- 91
2021-01-08 04:00:00 2.3 10 Este 25 Nordeste 0 -- -- 91
2021-01-08 03:00:00 2.4 8 Este 21 Este 0 -- -- 90
2021-01-08 02:00:00 2.3 8 Este 19 Nordeste 0 -- -- 90
2021-01-08 01:00:00 2.4 8 Este 22 Este 0 -- -- 89
2021-01-08 00:00:00 2.3 12 Este 22 Este 0 -- -- 89
2021-01-07 23:00:00 2.4 8 Este 25 Este 0 -- -- 89
2021-01-07 22:00:00 2.3 9 Este 30 Este 0 -- -- 89
2021-01-07 21:00:00 2.3 8 Este 26 Nordeste 0 -- -- 89
2021-01-07 20:00:00 2.3 10 Este 31 Nordeste 0 -- -- 91
2021-01-07 19:00:00 2.5 9 Este 30 Este 0 -- -- 91
2021-01-07 18:00:00 2.7 9 Este 26 Este 0 -- -- 92
2021-01-07 17:00:00 3.1 8 Este 19 Nordeste 0 -- -- 93
2021-01-07 16:00:00 3 7 Nordeste 18 Este 0 -- -- 94
2021-01-07 15:00:00 2.9 8 Este 22 Este 0.4 -- -- 95
2021-01-07 14:00:00 2.7 8 Nordeste 21 Nordeste 0.2 -- -- 96
2021-01-07 13:00:00 2.4 7 Nordeste 18 Este 0.4 -- -- 97
2021-01-07 12:00:00 2.1 9 Este 23 Este 0.4 -- -- 96
2021-01-07 11:00:00 2 8 Nordeste 21 Este 0.2 -- -- 97
2021-01-07 10:00:00 1.4 5 Nordeste 15 Nordeste 0.6 -- -- 98
2021-01-07 09:00:00 1.3 6 Nordeste 15 Nordeste 0.6 -- -- 97
2021-01-07 08:00:00 1.5 9 Nordeste 18 Nordeste 0.6 -- -- 97
2021-01-07 07:00:00 1.8 8 Nordeste 20 Este 0.4 -- -- 97
2021-01-07 06:00:00 2 9 Este 18 Este 0.6 -- -- 96
2021-01-07 05:00:00 2.4 7 Nordeste 15 Nordeste 0.8 -- -- 96
2021-01-07 04:00:00 2.4 4 Este 13 Nordeste 1 -- -- 96
2021-01-07 03:00:00 2.5 3 Este 12 Este 0.2 -- -- 96
2021-01-07 02:00:00 2.6 5 Este 14 Este 0.2 -- -- 95
2021-01-07 01:00:00 2.5 5 Este 18 Este 0.4 -- -- 93
2021-01-07 00:00:00 3.1 6 Este 18 Este 0.2 -- -- 88
2021-01-06 23:00:00 3.6 5 Este 20 Nordeste 0 -- -- 76
2021-01-06 22:00:00 3.6 9 Este 18 Este 0 -- -- 73
2021-01-06 21:00:00 3.4 8 Este 16 Este 0 -- -- 71
2021-01-06 20:00:00 3.5 7 Este 20 Este 0 -- -- 71
2021-01-06 19:00:00 3.9 7 Este 17 Este 0 -- -- 71
2021-01-06 18:00:00 4.7 8 Este 14 Este 0 -- -- 68
2021-01-06 17:00:00 5.5 5 Este 17 Nordeste 0 -- -- 65
2021-01-06 16:00:00 6 8 Este 15 Este 0 -- -- 62
2021-01-06 15:00:00 6.8 3 Sudeste 13 Nordeste 0 -- -- 61
2021-01-06 14:00:00 7.1 4 Este 11 Sur 0 -- -- 59
2021-01-06 13:00:00 4 4 Este 9 Nordeste 0 -- -- 71
2021-01-06 12:00:00 2.6 2 Sudeste 8 Sur 0 -- -- 78
2021-01-06 11:00:00 0.2 0 Calma 10 Este 0 -- -- 84
2021-01-06 10:00:00 -1.1 0 Calma 5 Nordeste 0 -- -- 87
2021-01-06 09:00:00 -1.8 2 Nordeste 8 Nordeste 0 -- -- 88
2021-01-06 08:00:00 -2 3 Norte 10 Este 0 -- -- 87
2021-01-06 07:00:00 -1.6 5 Este 9 Este 0 -- -- 85
2021-01-06 06:00:00 -1.9 2 Este 8 Este 0 -- -- 86
2021-01-06 05:00:00 -2.1 0 Calma 7 Nordeste 0 -- -- 89
2021-01-06 04:00:00 -1.1 3 Nordeste 7 Nordeste 0 -- -- 84
2021-01-06 03:00:00 -0.2 3 Este 14 Este 0 -- -- 82
2021-01-06 02:00:00 -0.3 6 Nordeste 12 Nordeste 0 -- -- 87
2021-01-06 01:00:00 0 8 Nordeste 13 Nordeste 0 -- -- 85
2021-01-06 00:00:00 0.6 7 Nordeste 15 Este 0 -- -- 82
2021-01-05 23:00:00 1.6 7 Este 14 Este 0 -- -- 77
2021-01-05 22:00:00 1.7 3 Este 11 Este 0 -- -- 74
2021-01-05 21:00:00 2.1 4 Este 9 Este 0 -- -- 71
2021-01-05 20:00:00 2.5 4 Este 7 Nordeste 0 -- -- 71
2021-01-05 19:00:00 3.2 2 Este 5 Nordeste 0 -- -- 72
2021-01-05 18:00:00 5.9 3 Este 9 Este 0 -- -- 63
2021-01-05 17:00:00 7.8 5 Este 10 Este 0 -- -- 58
2021-01-05 16:00:00 8.1 3 Sudeste 9 Sudeste 0 -- -- 70
2021-01-05 15:00:00 6.1 3 Sur 8 Sur 0 -- -- 84
2021-01-05 14:00:00 2.2 2 Sur 10 Nordeste 0 -- -- 100
2021-01-05 13:00:00 0.7 5 Nordeste 10 Nordeste 0 -- -- 100
2021-01-05 12:00:00 -0.1 0 Calma 4 Nordeste 0 -- -- 100
2021-01-05 11:00:00 -1.1 0 Calma -- -- 0 -- -- 100
2021-01-05 10:00:00 -2 0 Calma -- -- 0 -- -- 100
2021-01-05 09:00:00 -2.8 0 Calma -- -- 0 -- -- 100
2021-01-05 08:00:00 -3.3 0 Calma -- -- 0 -- -- 99
2021-01-05 07:00:00 -2.3 0 Calma -- -- 0 -- -- 99
2021-01-05 06:00:00 -1.6 0 Calma -- -- 0 -- -- 99
2021-01-05 05:00:00 -1.3 0 Calma -- -- 0 -- -- 99
2021-01-05 04:00:00 -1.1 0 Calma -- -- 0 -- -- 99
2021-01-05 03:00:00 -0.7 0 Calma 6 Sur 0 -- -- 98
2021-01-05 02:00:00 0 0 Calma 6 Sur 0 -- -- 97
2021-01-05 01:00:00 0.5 0 Calma 3 Nordeste 0 -- -- 96
2021-01-05 00:00:00 0.9 0 Calma 3 Norte 0 -- -- 94
2021-01-04 23:00:00 2 0 Calma 15 Noroeste 0.4 -- -- 93
2021-01-04 22:00:00 2.7 8 Oeste 17 Noroeste 0 -- -- 89
2021-01-04 21:00:00 3.2 0 Calma 3 Oeste 0 -- -- 95
2021-01-04 20:00:00 3.2 0 Calma 6 Noroeste 0 -- -- 94
2021-01-04 19:00:00 3.4 0 Calma 6 Norte 0 -- -- 92
2021-01-04 18:00:00 4.5 2 Noroeste 8 Oeste 0 -- -- 89
2021-01-04 17:00:00 5.8 0 Calma 7 Nordeste 0.2 -- -- 95
2021-01-04 16:00:00 4.1 3 Noroeste 13 Noroeste 0.4 -- -- 98
2021-01-04 15:00:00 3.8 3 Oeste 14 Sudoeste 0.4 -- -- 99
2021-01-04 14:00:00 3.3 9 Sur 14 Sur 0 -- -- 97
2021-01-04 13:00:00 2.5 9 Sudoeste 18 Sur 0 -- -- 96
2021-01-04 12:00:00 1.9 8 Sudoeste 15 Sur 0 -- -- 98
2021-01-04 11:00:00 0.6 9 Sudoeste 13 Sudoeste 0 -- -- 98
2021-01-04 10:00:00 0 8 Sudoeste 12 Sur 0 -- -- 97
2021-01-04 09:00:00 -0.5 4 Sur 12 Sur 0 -- -- 96
2021-01-04 08:00:00 -0.6 5 Sur 9 Sur 0 -- -- 96
2021-01-04 07:00:00 -0.9 0 Calma 5 Sur 0 -- -- 94
2021-01-04 06:00:00 -0.3 0 Calma 5 Sudeste 0 -- -- 94
2021-01-04 05:00:00 -0.1 0 Calma 8 Sur 0 -- -- 92
2021-01-04 04:00:00 0.1 0 Calma 8 Este 0 -- -- 91
2021-01-04 03:00:00 0.6 2 Sur 8 Sudoeste 0 -- -- 88
2021-01-04 02:00:00 0.8 0 Calma 9 Sudoeste 0 -- -- 86
2021-01-04 01:00:00 1 2 Sur 13 Sudoeste 0 -- -- 84
2021-01-04 00:00:00 2 0 Calma 8 Sur 0 -- -- 79
2021-01-03 23:00:00 3.2 2 Oeste 12 Oeste 0 -- -- 75
2021-01-03 22:00:00 4.3 8 Oeste 15 Oeste 0 -- -- 71
2021-01-03 21:00:00 3.7 4 Noroeste 12 Oeste 0 -- -- 74
2021-01-03 20:00:00 3.7 4 Oeste 12 Oeste 0 -- -- 72
2021-01-03 19:00:00 4.3 0 Calma 13 Oeste 0 -- -- 73
2021-01-03 18:00:00 5.7 3 Noroeste 17 Oeste 0 -- -- 66
2021-01-03 17:00:00 8 8 Oeste 24 Oeste 0 -- -- 56
2021-01-03 16:00:00 7.9 4 Oeste 14 Oeste 0 -- -- 57
2021-01-03 15:00:00 8.2 3 Oeste 14 Sudoeste 0 -- -- 57
2021-01-03 14:00:00 7.2 5 Oeste 17 Sudoeste 0 -- -- 56
2021-01-03 13:00:00 6.4 6 Sudoeste 13 Sur 0 -- -- 70
2021-01-03 12:00:00 4 5 Sur 9 Sur 0 -- -- 77
2021-01-03 11:00:00 0.5 5 Sur 11 Sur 0 -- -- 86
2021-01-03 10:00:00 -1.9 8 Sur 11 Sur 0 -- -- 91
2021-01-03 09:00:00 -3.3 0 Calma 9 Sudoeste 0 -- -- 94
2021-01-03 08:00:00 -3.1 0 Calma 4 Sur 0 -- -- 92
2021-01-03 07:00:00 -2.6 0 Calma 5 Sudoeste 0 -- -- 92
2021-01-03 06:00:00 -2.4 2 Sudoeste 7 Sudoeste 0 -- -- 94
2021-01-03 05:00:00 -2.1 0 Calma 5 Sudoeste 0 -- -- 90
2021-01-03 04:00:00 -1.5 0 Calma 4 Sur 0 -- -- 89
2021-01-03 03:00:00 -0.8 0 Calma 5 Sur 0 -- -- 85
2021-01-03 02:00:00 0 0 Calma 2 Norte 0 -- -- 81
2021-01-03 01:00:00 0.4 0 Calma 4 Norte 0 -- -- 79
2021-01-03 00:00:00 1.1 0 Calma 3 Norte 0 -- -- 77
2021-01-02 23:00:00 1.4 2 Norte 7 Norte 0 -- -- 76
2021-01-02 22:00:00 1.8 2 Nordeste 8 Norte 0 -- -- 75
2021-01-02 21:00:00 2.5 0 Calma 5 Oeste 0 -- -- 75
2021-01-02 20:00:00 3.4 0 Calma 4 Noroeste 0 -- -- 70
2021-01-02 19:00:00 3.9 0 Calma 6 Noroeste 0 -- -- 70
2021-01-02 18:00:00 5.6 0 Calma 11 Noroeste 0 -- -- 65
2021-01-02 17:00:00 7.3 3 Oeste 15 Oeste 0 -- -- 58
2021-01-02 16:00:00 7.7 5 Oeste 16 Oeste 0 -- -- 59
2021-01-02 15:00:00 7.6 5 Oeste 11 Oeste 0 -- -- 61
2021-01-02 14:00:00 5.9 4 Oeste 9 Oeste 0 -- -- 66